This is the latest recevied weather packets stored in our database for station/object N7WSS. If no packets are shown the sender has not sent any weather packets the latest 1 day(s).
| Time | Temp. | Humidity | Pressure | Rain* | Wind** | Luminosity | Snow |
|---|---|---|---|---|---|---|---|
| 1778004823 | 21.67° C | 53% | 1010.6 hPa | 0 mm | 0.89 m/s, 89° | - | - |
| 1778004519 | 20.56° C | 54% | 1010.6 hPa | 0 mm | 0.45 m/s, 168° | - | - |
| 1778004216 | 20.56° C | 55% | 1010.9 hPa | 0 mm | 0.89 m/s, 87° | - | - |
| 1778003912 | 21.11° C | 55% | 1010.7 hPa | 0 mm | 0.89 m/s, 159° | - | - |
| 1778003608 | 21.11° C | 55% | 1010.8 hPa | 0 mm | 0.89 m/s, 13° | - | - |
| 1778003305 | 21.11° C | 57% | 1010.8 hPa | 0 mm | 0.45 m/s, 82° | - | - |
| 1778003003 | 20.56° C | 56% | 1011.2 hPa | 0 mm | 0 m/s | - | - |
| 1778002698 | 19.44° C | 59% | 1010.8 hPa | 0 mm | 1.79 m/s, 186° | - | - |
| 1778002395 | 19.44° C | 60% | 1010.8 hPa | 0 mm | 1.34 m/s, 125° | - | - |
| 1778002093 | 19.44° C | 59% | 1011.2 hPa | 0 mm | 0.45 m/s, 223° | - | - |
| 1778001790 | 20° C | 59% | 1011.2 hPa | 0 mm | 0.89 m/s, 136° | - | - |
| 1778001484 | 20° C | 60% | 1010.9 hPa | 0 mm | 0.89 m/s, 147° | - | - |
| 1778001181 | 20° C | 59% | 1011.1 hPa | 0 mm | 0 m/s | - | - |
| 1778000878 | 19.44° C | 59% | 1011.1 hPa | 0 mm | 0.45 m/s, 357° | - | - |
| 1778000575 | 18.89° C | 60% | 1010.9 hPa | 0 mm | 0.45 m/s, 266° | - | - |
| 1778000275 | 19.44° C | 58% | 1010.8 hPa | 0 mm | 1.79 m/s, 154° | - | - |
| 1777999972 | 18.89° C | 64% | 1010.9 hPa | 0 mm | 0.45 m/s, 81° | - | - |
| 1777999667 | 18.33° C | 63% | 1011.1 hPa | 0 mm | 0.45 m/s, 148° | - | - |
| 1777999365 | 18.33° C | 64% | 1011.2 hPa | 0 mm | 1.34 m/s, 85° | - | - |
| 1777999063 | 18.33° C | 64% | 1011.2 hPa | 0 mm | 0.45 m/s, 151° | - | - |
| 1777998761 | 17.78° C | 66% | 1011.2 hPa | 0 mm | 0.45 m/s, 125° | - | - |
| 1777998458 | 17.78° C | 66% | 1010.9 hPa | 0 mm | 0 m/s | - | - |
| 1777998155 | 17.78° C | 68% | 1011.1 hPa | 0 mm | 0.45 m/s, 96° | - | - |
| 1777997852 | 18.33° C | 67% | 1011.2 hPa | 0 mm | 0.45 m/s, 107° | - | - |
| 1777997550 | 18.33° C | 68% | 1010.8 hPa | 0 mm | 0 m/s | - | - |
* Rain latest hour (hover to see other rain measurements)
** Current wind speed in m/s (hover to see current wind gust speed)